Station 41001 (LLNR 635) - EAST HATTERAS - 150 NM East of Cape Hatteras Image indicating link to RSS feed of recent meteorological observations for station 41001


Conditions at 41001 as of
(8:40 am EDT)
1240 GMT on 05/24/2024:
     

Click on the graph icon in the table below to see a time series plot of the last five days of that observation.

5-day plot - Wind Direction Wind Direction (WDIR): SW ( 220 deg true )
5-day plot - Wind Speed Wind Speed (WSPD): 9.7 kts
5-day plot - Wind Gust Wind Gust (GST): 11.7 kts
5-day plot - Atmospheric Pressure Atmospheric Pressure (PRES):29.99 in
5-day plot - Air Temperature Air Temperature (ATMP): 73.9 °F
5-day plot - Water Temperature Water Temperature (WTMP): 74.7 °F
5-day plot - Dew Point Dew Point (DEWP): 68.7 °F
5-day plot - Wind Speed at 10 Meters Wind Speed at 10 meters (WSPD10M): 11.7 kts
5-day plot - Wind Speed at 20 Meters Wind Speed at 20 meters (WSPD20M): 11.7 kts
5-day plot -  Wind Speed, Wind Gust and Atmospheric Pressure Combined plot of Wind Speed, Gust, and Air Pressure
Supplemental Measurements
Highest 1-minute Wind Speed
Time (EDT)5-day plot - 1-Minute Wind Speed WSPD 5-day plot - 1-Minute Wind Direction WDIR
8:33 am 11.7 kts-
Previous observations
TIME
(EDT)
5-day plot - Wind Direction
WDIR
 
5-day plot - Wind Speed
WSPD
kts
5-day plot - Wind Gust
GST
kts
5-day plot - Wave Height
WVHT
ft
5-day plot - Dominant Wave Period
DPD
sec
5-day plot - Average Wave Period
APD
sec
5-day plot - Mean Wave Direction
MWD
 
5-day plot - Atmospheric Pressure
PRES
in
5-day plot - Pressure Tendency
PTDY
in
5-day plot - Air Temperature
ATMP
°F
5-day plot - Water Temperature
WTMP
°F
5-day plot - Dew Point
DEWP
°F
5-day plot - Salinity
SAL
psu
5-day plot - Visibility
VIS
nmi
5-day plot - Tide (above MLLW)
TIDE
ft
2024-05-24 08:30 am SW 9.7 11.7----30.00- 73.9 74.7 68.7---
2024-05-24 08:20 am SW 9.7 13.6 2.0 94.2SSE30.00- 73.9 74.7 68.7---
2024-05-24 08:10 am SW 9.7 11.7 2.0-4.2SSE30.00- 73.9 74.7 68.9---
2024-05-24 08:00 am SW 9.7 11.7----30.00+0.03 73.9 74.7 69.1---
2024-05-24 07:50 am SW 9.7 11.7 2.3 84.1ESE30.00- 73.9 74.7 69.1---
2024-05-24 07:40 am SW 9.7 11.7----30.00- 73.8 74.7 68.9---
2024-05-24 07:30 am SW 9.7 11.7----30.00- 73.9 74.7 69.1---
2024-05-24 07:20 am SW 9.7 11.7 2.0 84.1 E30.00- 73.8 74.7 68.9---
2024-05-24 07:10 am SW 9.7 13.6 2.0-4.1 E29.99- 73.8 74.7 68.9---
2024-05-24 07:00 am SW 9.7 11.7----29.99+0.01 73.9 74.7 68.9---
2024-05-24 06:50 amWSW 9.7 11.7 2.3 84.2ESE29.99- 73.9 74.7 68.9---
2024-05-24 06:40 am SW 11.7 13.6----29.98- 73.8 74.7 68.7---
2024-05-24 06:30 am SW 11.7 13.6----29.98- 73.8 74.7 68.7---
2024-05-24 06:20 am SW 9.7 13.6 2.3 84.4ESE29.98- 73.8 74.7 68.7---
2024-05-24 06:10 am SW 11.7 13.6 2.3-4.4ESE29.98- 73.8 74.7 68.7---
2024-05-24 06:00 am SW 9.7 13.6----29.98-0.01 73.6 74.7 68.4---
2024-05-24 05:50 am SW 11.7 13.6 2.3 84.4ESE29.98- 73.8 74.7 68.5---
2024-05-24 05:40 am SW 9.7 11.7----29.98- 73.6 74.7 68.4---
2024-05-24 05:30 am SW 9.7 11.7----29.98- 73.6 74.7 68.5---
2024-05-24 05:20 am SW 9.7 11.7 2.0 84.4ESE29.97- 73.6 74.8 68.7---
2024-05-24 05:10 am SW 9.7 11.7 2.0-4.4ESE29.97- 73.6 74.7 68.7---
2024-05-24 05:00 am SW 9.7 13.6----29.97-0.04 73.6 74.7 68.5---
2024-05-24 04:50 amSSW 9.7 13.6 2.3 84.4 SE29.97- 73.6 74.8 68.5---
2024-05-24 04:40 amSSW 9.7 13.6----29.97- 73.6 74.8 68.5---
2024-05-24 04:30 amSSW 9.7 11.7----29.97- 73.4 74.8 68.2---
2024-05-24 04:20 amSSW 9.7 13.6 2.3 74.6 E29.97- 73.6 74.8 68.7---
2024-05-24 04:10 amSSW 11.7 13.6 2.3-4.6 E29.97- 73.4 74.8 68.4---
2024-05-24 04:00 amSSW 9.7 13.6----29.98-0.05 73.6 74.8 68.7---
2024-05-24 03:50 amSSW 11.7 13.6 2.3 94.5 SE29.98- 73.4 74.8 68.5---
2024-05-24 03:40 amSSW 11.7 13.6 2.3-4.5 SE29.98- 73.4 74.8 68.4---
2024-05-24 03:30 am SW 11.7 13.6----29.98- 73.6 74.8 68.5---
2024-05-24 03:20 amSSW 11.7 13.6 2.3 84.4 E29.99- 73.4 74.8 68.2---
2024-05-24 03:10 amSSW 9.7 11.7 2.3-4.4 E29.99- 73.4 74.8 68.4---
2024-05-24 03:00 amSSW 9.7 11.7----29.99-0.04 73.6 74.8 68.5---
2024-05-24 02:50 am SW 9.7 13.6 2.3 84.6 E29.99- 73.6 74.8 68.2---
2024-05-24 02:40 amSSW 11.7 13.6 2.3-4.6 E30.00- 73.4 74.8 68.0---
2024-05-24 02:30 amSSW 9.7 13.6----30.00- 73.8 74.7 68.4---
2024-05-24 02:20 am SW 9.7 13.6 2.3 84.8ESE30.01- 73.6 74.7 67.8---
2024-05-24 02:10 amSSW 9.7 13.6 2.3-4.8ESE30.01- 73.6 74.8 68.0---
2024-05-24 02:00 amSSW 9.7 11.7----30.01-0.04 73.6 74.8 68.0---
2024-05-24 01:50 am SW 9.7 11.7 2.0 94.4ESE30.01- 73.4- 67.5---
2024-05-24 01:40 am SW 9.7 11.7----30.01- 73.4 74.8 67.5---
2024-05-24 01:30 am SW 9.7 11.7----30.02- 73.6 74.8 67.5---
2024-05-24 01:20 am SW 9.7 13.6 2.3 85.0ENE30.02- 73.4 74.8 67.1---
2024-05-24 01:10 am SW 9.7 13.6 2.3-5.0ENE30.03- 73.4 74.8 67.3---
2024-05-24 01:00 am SW 9.7 11.7----30.03-0.02 73.4 74.8 67.3---
2024-05-24 12:50 am SW 9.7 11.7 2.3 84.9 E30.03- 73.4 74.8 67.3---
2024-05-24 12:40 amSSW 9.7 11.7----30.03- 73.4 74.8 67.3---
2024-05-24 12:30 amSSW 9.7 11.7----30.03- 73.6 74.8 67.1---
2024-05-24 12:20 amSSW 9.7 11.7 2.0 84.8 SE30.04- 73.6 74.8 67.3---
2024-05-24 12:10 amSSW 9.7 11.7 2.0-4.8 SE30.03- 73.4 74.8 66.9---
2024-05-24 12:00 amSSW 9.7 11.7----30.03+0.00 73.6 74.8 66.7---
2024-05-23 11:50 pmSSW 9.7 11.7 2.3 85.2ESE30.04- 73.6 74.8 66.4---
2024-05-23 11:40 pm S 9.7 11.7----30.04- 73.6 74.8 66.6---
2024-05-23 11:30 pmSSW 9.7 11.7----30.04- 73.6 74.8 66.9---
2024-05-23 11:20 pmSSW 9.7 11.7 2.0 85.2 E30.04- 73.6 74.8 66.9---
2024-05-23 11:10 pmSSW 9.7 11.7 2.0-5.2 E30.04- 73.8 75.0 66.9---
2024-05-23 11:00 pmSSW 9.7 11.7----30.04+0.01 73.6 75.0 66.9---
2024-05-23 10:50 pmSSW 7.8 11.7 2.3 85.8 E30.04- 73.6 75.0 67.1---
2024-05-23 10:40 pmSSW 9.7 11.7----30.04- 73.8 75.0 67.1---
2024-05-23 10:30 pm S 9.7 11.7----30.04- 73.6 75.0 66.6---
2024-05-23 10:20 pm S 9.7 11.7 2.3 85.9 E30.04- 73.8 75.0 66.9---
2024-05-23 10:10 pmSSW 7.8 9.7 2.3-5.9 E30.04- 73.8 75.0 66.9---
2024-05-23 10:00 pmSSW 7.8 9.7----30.05+0.02 73.8 75.2 66.9---
2024-05-23 09:50 pmSSW 7.8 9.7 2.0 85.5 E30.05- 73.8 75.2 66.7---
2024-05-23 09:40 pmSSW 7.8 9.7----30.04- 73.8 75.4 66.7---
2024-05-23 09:30 pmSSW 7.8 9.7----30.04- 73.8 75.4 66.9---
2024-05-23 09:20 pmSSW 7.8 9.7 2.3 86.0 E30.03- 73.8 75.4 66.9---
2024-05-23 09:10 pmSSW 7.8 9.7 2.3-6.0 E30.03- 73.8 75.4 66.7---
2024-05-23 09:00 pmSSW 7.8 7.8----30.03+0.00 73.8 75.2 66.6---
2024-05-23 08:50 pmSSW 7.8 9.7 2.3 85.9ESE30.03- 73.8 75.2 66.4---
2024-05-23 08:40 pmSSW 7.8 9.7----30.03- 73.8 75.2 66.4---
2024-05-23 08:30 pmSSW 7.8 9.7----30.03- 73.9 75.2 66.7---
2024-05-23 08:20 pmSSW 7.8 11.7 2.0 85.7ENE30.03- 73.8 75.2 66.4---
2024-05-23 08:10 pmSSW 7.8 9.7 2.0-5.7ENE30.03- 73.9 75.2 66.6---
2024-05-23 08:00 pmSSW 7.8 9.7----30.03+0.00 73.9 75.2 66.7---
2024-05-23 07:50 pmSSW 7.8 9.7 2.3 85.8ENE30.03- 73.8 75.2 66.6---
2024-05-23 07:40 pmSSW 7.8 9.7----30.03- 73.9 75.2 66.6---
2024-05-23 07:10 pm SW 5.8 9.7 2.0-5.5ESE30.03- 74.1 75.2 66.9---
2024-05-23 07:00 pm SW 5.8 7.8----30.03-0.01 74.1 75.4 66.6---
2024-05-23 06:50 pmSSW 5.8 7.8 2.0 85.4ENE30.02- 74.1 75.4 66.4---
2024-05-23 06:40 pmSSW 5.8 7.8----30.02- 74.3 75.4 66.6---
2024-05-23 06:30 pm SW 5.8 7.8----30.03- 74.1 75.4 66.2---
2024-05-23 06:20 pm SW 5.8 7.8 2.0 85.5 E30.03- 74.3 75.6 66.7---
2024-05-23 06:10 pm SW 5.8 9.7 2.0-5.5 E30.03- 74.1 75.7 66.6---
2024-05-23 06:00 pm SW 5.8 7.8----30.03-0.02 74.3 75.7 66.7---
2024-05-23 05:50 pm SW 5.8 7.8 2.3 85.8ENE30.03- 74.1 75.7 66.4---
2024-05-23 05:40 pm SW 7.8 7.8 2.3-5.8ENE30.04- 74.3 75.7 66.7---
2024-05-23 05:30 pm SW 7.8 9.7----30.04- 74.3 75.7 66.7---
2024-05-23 05:20 pm SW 7.8 9.7 2.0 85.7 E30.04- 74.3 75.7 66.6---
2024-05-23 05:10 pm SW 7.8 9.7 2.0-5.7 E30.04- 74.1 75.9 66.6---
2024-05-23 05:00 pmSSW 7.8 9.7----30.03-0.04 74.3 75.9 67.1---
2024-05-23 04:50 pmSSW 7.8 9.7 2.0 85.7ENE30.03- 74.1 75.9 66.6---
2024-05-23 04:40 pm SW 7.8 9.7 2.0-5.7ENE30.04- 74.3 75.9 66.9---
2024-05-23 04:30 pm SW 7.8 9.7----30.04- 74.1 75.9 66.9---
2024-05-23 04:20 pmWSW 7.8 9.7 2.3 86.1ESE30.04- 74.5 75.9 67.1---
2024-05-23 04:10 pm SW 7.8 9.7 2.3-6.1ESE30.04- 74.1 75.9 66.2---
2024-05-23 04:00 pm SW 7.8 9.7----30.04-0.03 74.1 75.9 66.7---
2024-05-23 03:50 pmSSW 7.8 9.7 2.0 85.7ESE30.04- 74.1 75.9 66.7---
2024-05-23 03:40 pmSSW 7.8 9.7----30.04- 74.1 75.7 67.1---
2024-05-23 03:30 pmSSW 7.8 9.7----30.04- 73.9 75.7 66.7---
2024-05-23 03:20 pmSSW 7.8 9.7 2.3 86.0ESE30.04- 73.9 75.9 66.9---
2024-05-23 03:10 pm S 7.8 9.7 2.3-6.0ESE30.04- 73.9 75.9 67.1---
2024-05-23 03:00 pmSSW 7.8 9.7----30.05-0.03 73.9 75.7 66.9---
2024-05-23 02:50 pmSSW 7.8 9.7 2.0 85.8 E30.05- 73.9 75.7 66.7---
2024-05-23 02:40 pm SW 5.8 7.8----30.06- 73.9 75.6 66.7---
2024-05-23 02:30 pmSSW 5.8 7.8----30.06- 73.9 75.6 66.6---
2024-05-23 02:20 pmSSW 5.8 7.8 2.3 96.0 E30.07- 73.9 75.6 66.6---
2024-05-23 02:10 pm SW 5.8 9.7 2.3-6.0 E30.07- 73.9 75.6 66.6---
2024-05-23 02:00 pm SW 5.8 7.8----30.07-0.02 73.9 75.7 66.6---
2024-05-23 01:50 pm SW 5.8 7.8 2.3 86.0ENE30.07- 73.8 75.6 66.4---
2024-05-23 01:40 pm SW 5.8 7.8----30.08- 73.8 75.6 66.7---
2024-05-23 01:30 pm SW 5.8 7.8----30.08- 73.6 75.4 66.7---
2024-05-23 01:20 pmSSW 5.8 7.8 2.3 86.1 E30.07- 73.8 75.4 66.9---
2024-05-23 01:10 pmSSW 5.8 7.8 2.3-6.1 E30.07- 73.6 75.4 66.7---
2024-05-23 01:00 pmSSW 5.8 7.8----30.07-0.02 73.6 75.4 66.9---
2024-05-23 12:50 pmSSW 5.8 7.8 2.3 85.9 E30.07- 73.4 75.4 66.6---
2024-05-23 12:40 pmSSW 7.8 9.7 2.3-5.9 E30.07- 73.4 75.2 66.9---
2024-05-23 12:30 pmSSW 7.8 9.7----30.07- 73.4 75.2 67.1---
2024-05-23 12:20 pmSSW 7.8 9.7 2.3 85.9ENE30.07- 73.4 75.2 66.7---
2024-05-23 12:10 pm S 7.8 9.7 2.3-5.9ENE30.07- 73.4 75.2 66.6---
2024-05-23 12:00 pmSSW 7.8 7.8----30.07-0.01 73.4 75.0 66.7---
2024-05-23 11:50 amSSW 5.8 9.7 2.3 86.0ENE30.08- 73.2 75.2 66.6---
2024-05-23 11:40 amSSW 5.8 7.8 2.3-6.0ENE30.08- 73.2 75.0 66.6---
2024-05-23 11:30 amSSW 5.8 7.8----30.08- 73.2 75.2 66.6---
2024-05-23 11:20 amSSW 5.8 7.8 2.3 85.8ENE30.08- 73.2 75.2 66.6---
2024-05-23 11:10 amSSW 5.8 7.8 2.3-5.8ENE30.09- 73.2 75.0 66.6---
2024-05-23 11:00 amSSW 5.8 7.8----30.09-0.01 73.2 75.0 66.6---
2024-05-23 10:50 am SW 5.8 7.8 2.3 85.9 E30.09- 73.0 75.0 66.6---
2024-05-23 10:40 amSSW 7.8 9.7 2.3-5.9 E30.09- 73.0 74.8 66.9---
2024-05-23 10:30 amSSW 7.8 9.7----30.08- 73.0 74.8 66.7---
2024-05-23 10:20 amSSW 7.8 7.8 2.6 86.2ENE30.09- 73.0 74.8 67.3---
2024-05-23 10:10 amSSW 7.8 7.8----30.09- 73.0 74.8 67.3---
2024-05-23 10:00 amSSW 7.8 9.7 2.6-6.2ENE30.09+0.00 73.0 74.8 67.1---
2024-05-23 09:50 amSSW 7.8 7.8 2.3 86.0 E30.09- 73.0 74.8 66.9---
2024-05-23 09:40 amSSW 5.8 7.8----30.09- 73.0 74.7 66.9---
2024-05-23 09:30 am SW 7.8 9.7----30.09- 73.0 74.7 67.1---
2024-05-23 09:20 amSSW 7.8 9.7 2.3 85.9ENE30.09- 73.0 74.7 66.7---
2024-05-23 09:10 amSSW 7.8 9.7 2.3-5.9ENE30.09- 73.0 74.7 67.1---
2024-05-23 09:00 amSSW 7.8 9.7----30.09+0.04 72.9 74.7 66.9---
2024-05-23 08:50 am SW 5.8 7.8 2.6 86.2ENE30.09- 72.9 74.7 67.1---

Detailed Wave Summary
for 41001 as of (8:10 am EDT)
1210 GMT on 05/24/2024:

These wave data are displayed in rounded times.

     

Click on the graph icon in the table below to see a time series plot of the last five days of that observation.

5-day plot - Significant Wave Height Significant Wave Height (WVHT): 2.0 ft
5-day plot - Swell Height Swell Height (SwH): 1.6 ft
5-day plot - Swell Period Swell Period (SwP): 9.1 sec
5-day plot - Swell Direction Swell Direction (SwD):SSE
5-day plot - Wind Wave Height Wind Wave Height (WWH): 1.3 ft
5-day plot - Wind Wave Period Wind Wave Period (WWP): 3.6 sec
5-day plot - Wind Wave Direction Wind Wave Direction (WWD):WSW
5-day plot - Average Wave Period Average Wave Period (APD): 4.2 sec
Previous observations
TIME
(EDT)
5-day plot - Wave Height
WVHT
ft
5-day plot - Swell Height
SwH
ft
5-day plot - Swell Period
SwP
sec
5-day plot - Swell Direction
SwD
 
5-day plot - Wind Wave Height
WWH
ft
5-day plot - Wind Wave Period
WWP
sec
5-day plot - Wind Wave Direction
WWD
 
5-day plot - Wave Steepness
STEEPNESS
 
5-day plot - Average Wave Period
APD
sec
2024-05-24 07:40 am 2.3 1.6 8.3ESE 1.6 3.4 WSW N/A 4.1
2024-05-24 07:10 am 2.0 1.3 7.7 E 1.3 3.4 WSW N/A 4.1
2024-05-24 06:40 am 2.3 1.6 7.7ESE 1.6 3.2 SW N/A 4.2
2024-05-24 06:10 am 2.3 1.6 7.7ESE 1.3 3.4 WSW N/A 4.4
2024-05-24 05:40 am 2.3 1.6 7.7ESE 1.3 2.9 SW N/A 4.4
2024-05-24 05:10 am 2.0 1.6 8.3ESE 1.3 4.8 SE N/A 4.4
2024-05-24 04:40 am 2.3 2.0 7.7 SE 1.3 2.9 SW N/A 4.4
2024-05-24 04:10 am 2.3 2.0 7.1 E 1.3 5.0 SSW N/A 4.6
2024-05-24 03:40 am 2.3 1.6 9.1 SE 1.3 2.9 SW N/A 4.5
2024-05-24 03:10 am 2.3 2.0 7.7 E 1.3 4.8 S N/A 4.4
2024-05-24 02:40 am 2.3 2.0 7.7 E 1.3 5.6 ESE N/A 4.6
2024-05-24 02:10 am 2.3 2.0 8.3ESE 1.3 5.0 SSE N/A 4.8
2024-05-24 01:40 am 2.0 1.6 9.1ESE 1.0 4.5 SSW N/A 4.4
2024-05-24 01:10 am 2.3 2.0 7.7ENE 1.0 4.5 S N/A 5.0
2024-05-24 12:40 am 2.3 2.0 7.7 E 1.0 4.2 SE N/A 4.9
2024-05-24 12:10 am 2.0 2.0 8.3 SE 1.0 2.4 SSW N/A 4.8
2024-05-23 11:40 pm 2.3 2.0 8.3ESE 1.0 4.8 SSE N/A 5.2
2024-05-23 11:10 pm 2.0 2.0 8.3 E 1.0 3.8 W N/A 5.2
2024-05-23 10:40 pm 2.3 2.0 7.7 E 0.7 3.8 W N/A 5.8
2024-05-23 10:10 pm 2.3 2.0 8.3 E 0.7 4.0 WNW N/A 5.9
2024-05-23 09:40 pm 2.0 2.0 7.7 E 0.7 3.7 W N/A 5.5
2024-05-23 09:10 pm 2.3 2.0 8.3 E 0.7 3.7 SW N/A 6.0
2024-05-23 08:40 pm 2.3 2.0 8.3ESE 0.7 3.1 WSW N/A 5.9
2024-05-23 08:10 pm 2.0 2.0 7.7ENE 0.7 3.6 WSW N/A 5.7
2024-05-23 07:40 pm 2.3 2.0 8.3ENE 0.7 3.6 SW N/A 5.8
2024-05-23 07:10 pm 2.0 2.0 8.3ESE 0.7 3.8 SW N/A 5.5
2024-05-23 06:40 pm 2.0 2.0 8.3ENE 0.7 3.6 WSW N/A 5.4
2024-05-23 06:10 pm 2.0 2.0 8.3 E 0.7 3.8 SW N/A 5.5
2024-05-23 05:40 pm 2.3 2.0 8.3ENE 0.7 3.8 WSW N/A 5.8
2024-05-23 05:10 pm 2.0 2.0 8.3 E 0.7 3.4 WSW N/A 5.7
2024-05-23 04:40 pm 2.0 2.0 8.3ENE 0.7 3.8 S N/A 5.7
2024-05-23 04:10 pm 2.3 2.0 8.3ESE 0.7 3.4 SSE N/A 6.1
2024-05-23 03:40 pm 2.0 2.0 7.7ESE 0.7 3.8 SW N/A 5.7
2024-05-23 03:10 pm 2.3 2.0 8.3ESE 0.7 3.7 SE N/A 6.0
2024-05-23 02:40 pm 2.0 2.0 8.3 E 0.7 3.7 SSE N/A 5.8
2024-05-23 02:10 pm 2.3 2.0 9.1 E 0.7 3.4 SSE N/A 6.0
2024-05-23 01:40 pm 2.3 2.3 8.3ENE 0.7 3.2 SSE N/A 6.0
2024-05-23 01:10 pm 2.3 2.3 8.3 E 0.7 4.0 SE N/A 6.1
2024-05-23 12:40 pm 2.3 2.3 8.3 E 0.7 3.6 ESE N/A 5.9
2024-05-23 12:10 pm 2.3 2.0 8.3ENE 0.7 3.8 ESE N/A 5.9
2024-05-23 11:40 am 2.3 2.3 8.3ENE 0.7 3.8 SE N/A 6.0
2024-05-23 11:10 am 2.3 2.0 7.7ENE 0.7 2.9 SSW N/A 5.8
2024-05-23 10:40 am 2.3 2.3 8.3 E 0.7 4.0 ESE N/A 5.9
2024-05-23 10:10 am 2.6 2.3 8.3ENE 0.7 4.0 ESE N/A 6.2
2024-05-23 09:40 am 2.3 2.3 8.3 E 0.7 3.4 ESE N/A 6.0
2024-05-23 09:10 am 2.3 2.0 8.3ENE 0.7 4.0 ESE N/A 5.9

Plot of wave energy versus frequency (and period)